Location: Unspecified
(41.1850°N, 73.2650°W)
Time: 18:17:07
(UTC+00:00)

BREEZE M DEB (TANK) - Pass Details

Date: 14 December 2025
Orbit: 287 x 13772 km, 49.5° (Epoch: 15 January)

Event Time Altitude Azimuth Distance (km) Brightness Sun altitude
Rises 21:53:08 0° 254° (WSW) 3,214 9.0 -5.5°
Reaches altitude 10° 21:56:20 10° 264° (W) 1,602 6.6 -6.1°
Maximum altitude 21:59:02 33° 332° (NNW) 569 3.0 -6.5°
Drops below altitude 10° 22:00:58 10° 42° (NE) 1,135 3.9 -6.8°
Enters shadow 22:01:11 - 45° (NE) 1,236 4.0 -6.9°
